Location: Unspecified
(0.0000°N, 0.0000°E)
Time: 00:27:03
(UTC+00:00)

Vanguard 1 Rocket - Pass Details

Date: 13 December 2017
Orbit: 652 x 4225 km, 34.3° (Epoch: 20 July)

Event Time Altitude Azimuth Distance (km) Brightness Sun altitude
Rises 15:18:52 0° 274° (W) 3,351 11.0 35.2°
Reaches altitude 10° 15:21:35 10° 291° (WNW) 2,685 10.4 34.6°
Maximum altitude 15:26:22 21° 340° (NNW) 2,498 9.7 33.6°
Drops below altitude 10° 15:33:27 10° 25° (NNE) 4,152 10.4 32.0°
Sets 15:39:14 0° 39° (NE) 5,881 11.1 30.7°
